TimeEDT,TemperatureF,Dew PointF,Humidity,Sea Level PressureIn,VisibilityMPH,Wind Direction,Wind SpeedMPH,Gust SpeedMPH,PrecipitationIn,Events,Conditions,WindDirDegrees,DateUTC
12:53 AM,59.0,52.0,78,30.10,10.0,NNW,8.1,-,N/A,,Partly Cloudy,330,2013-08-04 04:53:00
1:53 AM,59.0,53.1,81,30.10,10.0,NNW,9.2,-,N/A,,Clear,330,2013-08-04 05:53:00
2:53 AM,57.9,52.0,81,30.11,10.0,NNW,9.2,-,N/A,,Clear,330,2013-08-04 06:53:00
3:53 AM,57.0,51.1,81,30.11,10.0,NW,5.8,-,N/A,,Clear,320,2013-08-04 07:53:00
4:53 AM,55.9,52.0,87,30.12,10.0,WNW,6.9,-,N/A,,Clear,290,2013-08-04 08:53:00
5:53 AM,55.9,51.1,84,30.13,10.0,NW,8.1,-,N/A,,Clear,310,2013-08-04 09:53:00
6:53 AM,55.0,51.1,86,30.13,10.0,WNW,6.9,-,N/A,,Clear,290,2013-08-04 10:53:00
7:53 AM,57.9,52.0,81,30.14,10.0,NNW,11.5,-,N/A,,Clear,340,2013-08-04 11:53:00
8:53 AM,60.1,53.1,78,30.16,10.0,NNW,11.5,-,N/A,,Clear,340,2013-08-04 12:53:00
9:53 AM,64.0,54.0,70,30.17,10.0,North,9.2,-,N/A,,Clear,10,2013-08-04 13:53:00
10:42 AM,66.2,53.6,64,30.18,10.0,NNE,6.9,-,N/A,,Mostly Cloudy,30,2013-08-04 14:42:00
10:50 AM,66.2,53.6,64,30.18,10.0,North,8.1,-,N/A,,Scattered Clouds,10,2013-08-04 14:50:00
10:53 AM,66.0,54.0,65,30.18,10.0,North,6.9,-,N/A,,Scattered Clouds,360,2013-08-04 14:53:00
11:53 AM,71.1,54.0,55,30.20,10.0,North,8.1,-,N/A,,Mostly Cloudy,10,2013-08-04 15:53:00
12:53 PM,69.1,52.0,54,30.19,10.0,North,6.9,-,N/A,,Overcast,360,2013-08-04 16:53:00
1:53 PM,69.1,53.1,57,30.18,10.0,NE,8.1,-,N/A,,Overcast,50,2013-08-04 17:53:00
2:53 PM,70.0,50.0,49,30.17,10.0,Calm,Calm,-,N/A,,Overcast,0,2013-08-04 18:53:00
3:53 PM,73.9,52.0,46,30.15,10.0,NE,10.4,16.1,N/A,,Scattered Clouds,40,2013-08-04 19:53:00
4:53 PM,72.0,51.1,48,30.14,10.0,NNE,5.8,-,N/A,,Scattered Clouds,20,2013-08-04 20:53:00
5:53 PM,71.1,51.1,49,30.14,10.0,ENE,4.6,-,N/A,,Scattered Clouds,70,2013-08-04 21:53:00
6:53 PM,71.1,53.1,53,30.14,10.0,East,5.8,-,N/A,,Partly Cloudy,100,2013-08-04 22:53:00
7:53 PM,68.0,53.1,59,30.13,10.0,East,5.8,-,N/A,,Clear,90,2013-08-04 23:53:00
8:53 PM,64.0,54.0,70,30.14,10.0,SE,4.6,-,N/A,,Clear,140,2013-08-05 00:53:00
9:53 PM,61.0,52.0,72,30.13,10.0,SE,4.6,-,N/A,,Clear,140,2013-08-05 01:53:00
10:53 PM,61.0,51.1,70,30.13,10.0,SE,3.5,-,N/A,,Clear,140,2013-08-05 02:53:00
11:53 PM,60.1,50.0,69,30.12,10.0,South,8.1,-,N/A,,Scattered Clouds,180,2013-08-05 03:53:00